Theta_e
329 327 326 327 323 317 320 319 314 316 325 321 312 311 314 312 312 315 314 314 320 326 330 335 338 339 340 342 341 340 344 346 346 350 352 350 350 350 350 354 359 361 361 361 361 361 360 360 359 359 359 359 360 362 365 368 369 369 369 366 365 365 365
328 328 326 328 325 323 319 313 315 323 325 323 317 311 311 312 313 314 312 312 315 316 321 332 339 338 339 341 340 340 344 345 345 350 353 351 352 352 353 357 361 361 361 362 363 360 358 359 359 359 359 359 360 361 364 367 369 370 370 368 365 364 365
327 329 325 323 324 327 322 318 323 322 313 312 314 311 311 312 313 314 312 312 314 313 317 328 335 337 339 341 342 341 341 342 343 348 354 355 354 354 353 355 360 361 359 360 363 361 359 359 359 360 361 359 359 361 363 365 368 370 370 368 366 364 365
328 326 323 317 318 324 324 322 326 323 316 313 312 312 313 313 313 313 312 312 313 318 326 331 335 340 341 341 344 343 341 341 341 345 353 355 355 355 353 352 356 358 356 356 360 361 360 360 360 361 361 359 358 360 363 365 367 370 371 370 368 366 365
324 320 321 320 318 321 320 316 316 317 317 318 316 314 313 313 313 313 313 312 313 323 336 337 340 345 341 341 346 345 341 340 340 342 350 353 354 356 356 353 354 355 356 357 359 361 361 360 361 361 360 359 357 358 362 365 368 370 371 371 370 367 366
316 318 326 327 326 325 322 317 314 315 316 315 312 313 313 313 313 312 314 312 313 326 339 340 342 344 340 340 344 344 340 340 341 343 348 352 355 357 355 353 351 353 359 361 358 360 362 361 362 362 360 359 356 357 362 364 367 370 371 371 370 368 367
321 326 330 328 327 328 327 323 322 321 319 313 308 309 311 312 312 313 313 310 315 332 346 344 342 344 340 339 344 343 340 340 341 342 345 351 356 357 353 348 348 353 358 359 356 358 363 363 363 363 362 359 357 359 362 363 366 369 369 370 370 368 367
326 328 330 330 330 329 325 323 325 323 319 318 315 315 315 312 310 311 312 310 316 332 350 348 344 343 338 338 342 342 340 341 341 342 348 356 359 358 353 350 353 355 357 359 358 361 366 365 364 365 363 361 360 360 361 362 364 368 368 368 369 369 368
319 321 323 322 324 326 324 324 326 325 323 323 320 319 319 314 311 312 312 310 315 330 348 349 343 341 337 337 339 338 342 344 341 346 356 361 364 364 359 358 361 358 358 361 366 371 372 367 365 367 365 363 363 361 361 361 363 366 367 366 367 369 368
314 315 314 314 317 322 323 325 326 325 325 323 317 314 312 311 314 315 312 311 319 334 345 343 340 340 341 343 338 336 342 346 349 360 365 365 370 372 369 367 365 363 363 367 375 379 374 368 366 368 367 365 364 363 361 361 362 364 365 364 366 369 369
315 316 319 323 324 320 317 320 322 324 326 325 320 313 308 311 314 313 317 320 321 328 339 342 339 338 341 346 342 339 348 353 353 361 368 372 374 373 375 373 370 372 374 376 381 382 376 368 368 368 368 366 365 363 362 361 362 363 363 363 364 368 370
321 325 328 330 328 321 318 319 320 322 325 325 320 312 313 319 313 308 321 333 322 323 336 341 342 341 341 344 342 339 348 354 349 351 366 374 374 372 377 378 376 382 387 386 385 383 377 369 367 369 368 366 365 363 361 359 359 361 362 362 364 368 371
325 329 328 330 329 325 324 323 321 322 323 322 318 316 319 323 315 311 325 338 329 328 333 335 339 344 341 342 343 341 342 345 349 360 369 370 369 371 373 376 379 384 389 391 388 384 379 372 368 369 369 367 365 363 362 358 357 360 361 361 363 368 370
325 328 328 330 329 326 325 324 324 325 324 323 320 321 323 323 321 322 328 335 333 331 332 332 336 339 338 341 344 342 341 339 347 361 362 355 360 367 370 374 378 381 386 389 387 385 383 375 370 370 369 368 367 365 363 360 358 359 361 361 363 368 371
321 326 329 329 328 326 323 323 326 326 325 325 322 323 324 322 322 325 326 328 329 330 332 333 334 336 337 341 342 341 344 344 343 349 348 342 350 362 368 371 373 377 383 385 385 385 383 378 373 370 370 369 367 366 365 362 360 361 362 363 364 367 371
317 325 327 325 326 327 320 319 325 325 323 324 323 324 326 322 321 323 321 319 324 331 333 332 335 336 335 337 338 339 345 345 342 342 343 343 353 364 370 372 373 376 378 380 382 381 378 377 374 370 372 371 367 367 367 364 362 363 365 366 365 367 372
316 323 325 324 323 320 316 318 325 326 326 327 325 327 329 327 325 322 318 319 329 337 335 332 333 333 335 338 338 339 345 353 353 348 343 344 350 360 370 374 374 373 372 374 378 378 375 374 374 371 372 372 369 368 368 367 363 364 368 369 366 368 372
315 321 323 323 320 315 318 326 329 329 329 328 326 326 329 330 329 327 325 328 334 337 334 332 334 335 339 343 344 343 346 352 358 354 347 345 343 349 364 372 372 372 373 375 377 377 377 374 372 371 371 371 371 369 369 369 365 365 371 371 369 370 373
315 319 322 319 316 319 326 332 334 331 329 330 329 329 330 330 330 332 334 334 334 335 333 332 335 339 340 338 340 341 339 342 347 345 346 350 346 346 360 371 374 376 378 379 379 379 377 373 372 372 372 372 371 370 371 370 367 368 372 372 371 372 373
318 317 318 318 320 326 331 333 333 333 333 332 329 325 328 331 329 331 337 337 338 341 337 331 333 336 335 334 337 339 335 335 338 336 337 342 342 343 352 364 378 383 379 377 379 379 376 373 372 372 372 372 371 372 373 371 370 373 374 374 374 373 374
320 316 315 320 323 324 328 333 334 336 337 336 331 326 330 335 331 333 341 342 340 341 338 334 336 337 333 333 336 335 331 332 334 333 333 333 335 340 343 348 366 379 377 374 378 379 376 373 371 371 373 372 372 374 374 372 373 375 375 375 376 375 375
320 318 317 321 320 318 326 334 337 338 336 336 337 332 331 338 337 338 344 345 341 341 341 341 345 346 342 338 335 332 331 330 331 330 330 332 331 336 340 338 351 371 376 374 375 378 377 373 372 373 374 372 374 376 375 373 374 376 377 378 377 376 377
319 318 319 321 319 321 332 341 341 338 334 335 338 328 326 342 348 344 346 346 343 345 347 347 349 348 345 340 336 333 331 331 331 332 333 333 331 334 338 333 342 366 375 373 374 378 378 375 374 375 374 374 376 377 376 375 374 376 378 378 378 377 377
321 321 321 322 322 327 339 342 338 336 336 337 334 322 325 346 355 346 346 348 347 349 351 351 350 347 345 344 342 337 333 331 332 335 338 339 337 337 336 334 350 370 374 375 379 380 377 376 376 374 374 376 377 377 377 376 375 377 377 377 377 376 374
324 324 322 321 325 334 343 340 336 337 337 333 327 324 335 350 349 344 346 346 345 350 351 352 353 351 348 346 342 336 333 334 338 341 345 351 349 338 335 351 370 377 376 376 380 377 375 376 375 375 376 377 377 377 377 377 376 376 376 376 376 374 372
322 324 324 321 324 334 339 336 334 337 334 328 328 336 345 347 343 343 346 345 346 350 350 351 353 352 348 346 343 340 340 342 346 347 350 357 357 351 355 368 374 375 375 379 379 376 374 376 375 375 377 377 378 378 377 377 376 375 375 375 374 372 370
322 321 321 321 324 332 333 335 337 337 335 334 340 346 344 342 343 345 347 347 350 350 349 349 350 349 348 348 348 348 348 350 351 351 355 365 367 366 369 372 369 371 378 380 377 373 373 373 374 376 377 378 378 377 376 376 374 373 374 373 371 369 367
320 317 320 325 332 335 332 337 342 343 341 343 346 344 341 341 343 343 345 348 349 349 350 352 350 349 349 352 355 356 356 356 355 355 361 369 369 366 367 368 367 371 376 377 373 371 371 372 373 374 377 376 375 374 374 373 372 372 371 369 367 365 363
328 326 330 335 341 341 336 338 342 342 341 340 340 340 340 340 340 341 345 348 348 351 354 356 355 354 353 355 358 358 358 359 360 361 365 369 367 364 364 366 368 370 372 373 372 371 372 372 372 373 374 373 372 373 372 370 369 369 367 365 363 362 361
342 341 342 341 341 340 336 336 338 337 336 336 337 340 339 339 341 344 346 348 349 351 352 354 355 354 354 356 356 355 356 359 360 363 365 365 364 365 366 367 369 369 369 370 370 371 371 372 372 372 371 370 371 370 368 367 367 365 364 362 361 360 359
344 346 346 344 343 343 339 336 337 336 335 336 337 339 339 340 343 346 346 347 348 348 349 352 352 349 348 350 350 349 349 351 351 353 357 361 364 366 368 368 368 368 368 368 368 370 372 372 371 369 368 367 367 366 365 364 363 362 361 360 359 358 357
343 343 344 343 341 341 340 338 338 337 336 337 337 338 339 340 340 341 340 341 342 342 344 346 347 347 345 346 347 346 346 346 346 347 350 352 353 358 365 367 367 367 368 368 368 369 369 368 367 366 365 364 363 363 362 361 359 359 358 357 357 356 354
343 341 342 343 341 341 339 338 337 337 336 336 335 335 335 336 336 336 335 335 336 336 337 339 342 344 344 343 345 345 344 344 343 344 347 347 344 345 351 356 360 364 365 364 364 364 363 362 363 363 362 361 360 360 360 358 357 356 355 355 354 353 351
343 342 342 343 343 342 340 338 336 335 334 333 333 332 332 332 332 332 332 332 332 332 333 334 338 341 342 342 343 344 345 345 343 343 345 345 342 342 343 345 350 355 358 358 360 360 359 358 358 359 359 359 358 358 358 356 355 354 353 353 352 351 351
341 341 341 342 342 340 338 336 335 334 333 331 331 331 330 330 329 329 329 329 329 329 329 330 333 337 341 342 343 344 346 344 343 344 345 343 342 342 343 344 346 351 356 358 359 358 358 357 357 357 357 358 357 357 356 355 354 353 353 352 351 350 349
339 339 339 339 338 335 333 332 332 333 331 331 330 330 329 329 328 328 327 327 326 326 327 327 328 331 333 334 337 341 342 342 342 343 345 346 345 345 346 347 350 354 359 360 359 358 358 357 357 357 357 357 358 358 356 355 354 354 353 351 350 349 348
337 337 336 334 333 331 330 329 330 330 329 330 329 329 328 327 326 326 326 326 324 324 325 325 326 327 327 328 331 334 335 336 337 338 340 344 347 349 351 352 354 357 359 358 358 358 357 357 357 358 358 357 357 357 356 356 355 353 352 350 349 348 347
Wind_Speed
20 18 16 17 15 11 9 12 14 13 14 13 9 12 13 11 10 9 9 10 9 9 10 11 11 11 14 14 16 16 14 16 16 12 17 17 15 16 15 14 15 16 16 17 21 25 26 28 31 33 34 35 35 34 34 35 35 35 35 36 35 35 33
22 19 17 19 19 16 10 10 13 13 15 14 9 9 10 10 10 9 11 13 11 9 9 13 17 16 14 14 15 16 16 16 14 12 18 18 17 17 15 14 13 13 15 15 20 27 29 31 33 35 36 36 36 35 35 35 35 35 36 36 36 35 34
18 19 16 16 19 23 19 13 12 12 12 12 10 9 9 10 10 8 12 14 12 12 9 11 18 19 16 14 14 15 16 17 13 12 18 19 19 17 14 13 12 12 14 15 19 26 30 32 34 35 36 36 35 35 35 35 36 37 36 35 35 35 34
16 15 14 13 14 20 21 17 13 11 9 9 10 9 8 9 10 9 12 13 10 11 11 11 15 17 17 17 14 15 18 17 14 13 17 19 18 16 14 14 14 14 16 18 22 27 30 31 32 34 35 36 36 35 35 35 35 36 35 34 34 34 34
16 12 12 15 13 13 15 15 14 12 9 9 10 11 10 9 9 8 9 11 9 8 9 12 13 10 15 15 12 13 14 15 15 14 15 17 15 14 14 13 14 16 16 16 22 27 29 30 31 33 35 36 37 35 34 35 35 35 35 34 34 35 35
13 13 15 18 17 14 13 12 14 14 11 10 11 11 11 11 10 9 9 9 9 8 8 9 9 7 14 15 13 13 15 16 16 14 10 14 15 13 14 14 14 14 12 12 16 21 26 28 30 33 35 35 36 36 35 35 35 35 36 35 35 35 35
11 15 18 20 20 19 16 14 14 15 14 12 10 10 10 10 11 12 12 11 8 7 5 6 9 8 11 15 12 11 15 17 17 18 12 16 16 14 14 14 13 13 12 13 15 19 24 27 29 32 33 34 36 36 36 36 35 35 35 34 34 35 35
11 15 16 19 20 19 16 14 14 15 16 16 14 10 9 10 13 14 12 10 9 7 4 5 7 7 10 13 12 11 13 14 18 19 13 15 15 14 15 15 14 13 13 13 15 17 21 24 26 29 31 31 33 35 35 35 36 36 35 33 33 34 34
10 12 14 16 17 15 12 12 15 17 20 23 20 14 9 9 14 16 12 8 9 9 7 7 7 9 12 13 12 11 11 11 14 12 10 15 14 13 16 16 15 14 13 14 14 15 17 21 24 27 30 30 31 34 35 35 35 36 35 33 32 33 34
11 11 11 10 12 12 11 13 18 20 22 24 19 13 11 9 10 12 11 8 8 10 12 12 13 12 10 9 9 11 11 7 7 5 11 15 13 13 15 15 15 14 12 13 15 14 15 21 24 26 30 30 30 32 34 34 34 34 35 34 33 33 33
12 10 10 10 11 13 14 17 21 21 22 23 18 12 12 11 9 9 9 9 11 11 12 15 17 15 9 8 10 11 9 4 5 4 6 11 12 12 13 13 13 13 12 13 15 14 16 21 25 26 28 30 29 30 32 33 33 34 34 34 34 33 33
18 15 14 16 16 16 17 19 22 21 22 23 20 16 14 12 10 11 11 9 11 14 13 11 11 12 12 8 10 10 7 4 5 6 6 11 12 11 11 10 11 11 11 12 14 13 15 20 23 24 27 30 29 29 31 32 32 33 34 34 34 34 33
24 22 20 19 17 16 17 19 20 21 22 23 22 19 18 15 11 11 11 11 10 13 16 17 11 9 12 10 8 10 9 8 7 4 7 10 12 12 11 11 11 10 9 10 12 12 13 17 20 22 25 28 28 27 30 32 31 31 34 34 34 34 33
21 24 24 23 20 18 18 20 20 20 21 23 23 21 22 21 18 17 15 11 12 13 15 19 17 12 11 8 6 9 12 13 10 6 9 11 10 11 11 10 10 9 10 11 12 12 13 14 18 20 22 26 27 27 28 31 31 31 34 34 33 33 33
15 21 24 25 23 20 20 20 19 20 22 24 24 21 21 20 19 20 19 14 13 12 13 16 16 14 15 11 8 10 12 14 14 12 14 16 14 13 13 12 11 10 10 11 12 13 14 15 18 21 22 24 26 26 27 30 31 30 33 35 33 32 33
11 17 20 24 24 21 22 22 21 23 23 21 18 15 16 17 16 16 17 14 11 10 11 14 13 13 17 17 15 13 10 12 14 15 15 15 14 16 15 13 13 13 12 13 14 15 15 16 20 22 22 23 26 27 28 30 30 29 32 34 33 32 32
11 15 17 17 17 17 18 19 21 23 21 19 16 12 16 20 17 13 12 10 7 7 10 12 13 14 16 15 14 13 11 10 10 10 13 14 12 14 16 15 15 16 15 15 16 16 16 19 23 26 25 24 26 27 28 30 30 28 30 33 33 31 31
11 15 16 14 14 14 12 11 16 20 21 22 19 18 20 21 16 13 13 12 11 10 10 11 12 13 11 9 9 10 10 8 5 6 10 13 13 12 14 16 16 15 14 14 15 17 21 24 27 28 27 25 26 27 27 28 29 27 28 31 31 30 30
10 11 13 14 14 13 11 10 12 15 19 22 21 21 22 19 17 14 9 9 12 12 12 12 10 11 12 11 9 10 12 11 9 10 11 11 12 10 10 14 17 16 15 15 15 17 23 27 26 26 26 26 26 26 26 28 29 26 27 29 29 29 30
9 9 12 12 10 10 11 12 13 13 15 18 20 21 21 19 20 14 6 7 8 6 9 15 14 13 15 14 10 11 14 16 15 15 15 12 12 10 7 10 14 16 16 17 18 20 23 25 25 25 27 27 26 26 27 29 28 25 27 28 28 29 29
9 9 11 10 9 11 12 12 10 6 5 7 8 10 12 13 15 10 6 8 10 12 10 10 9 10 14 13 10 13 18 19 19 20 20 17 15 13 11 10 11 18 22 22 23 24 25 26 27 27 27 28 27 26 27 28 27 26 26 26 27 28 28
10 9 10 10 11 12 10 7 4 4 2 2 4 3 4 5 7 6 7 8 9 12 13 9 7 7 8 8 8 13 20 22 21 22 22 20 20 17 14 14 12 17 24 25 26 28 27 27 28 29 29 29 27 25 27 28 27 26 25 25 26 26 26
10 10 10 10 10 9 7 6 5 4 1 1 4 2 4 3 8 9 8 8 8 9 11 10 8 7 6 5 6 11 16 18 17 17 19 21 23 19 17 20 17 16 23 26 26 27 26 25 29 31 31 29 27 25 26 27 26 25 25 26 26 26 26
9 10 10 8 7 5 6 8 6 4 4 2 1 5 4 5 9 9 8 8 8 8 10 10 7 5 6 7 8 10 13 14 14 13 14 16 18 18 19 21 16 17 22 22 20 21 22 25 30 32 31 28 25 24 26 27 26 25 26 27 26 27 27
9 9 9 8 7 5 7 7 5 4 5 4 6 5 1 5 7 8 8 8 8 8 8 7 6 7 8 10 13 17 16 12 9 8 6 7 8 13 15 9 10 15 16 16 17 18 22 25 28 30 29 25 22 23 25 25 25 26 28 28 27 28 28
10 10 9 8 6 5 7 9 8 5 5 6 4 1 2 4 7 9 9 10 10 10 9 8 7 10 12 14 16 16 15 12 9 5 1 8 12 10 6 13 18 14 11 13 15 16 20 24 26 28 28 24 22 23 23 23 26 29 30 30 29 29 28
9 9 10 9 7 6 8 9 9 6 4 2 3 4 4 6 9 10 10 11 12 12 12 11 11 12 13 15 16 14 10 9 9 7 3 6 8 6 3 12 16 14 11 11 13 17 20 24 25 26 25 22 22 22 21 23 29 31 31 31 30 29 28
9 10 9 5 2 3 7 6 4 3 4 6 6 5 4 6 8 8 9 11 13 13 13 14 13 13 11 11 12 10 6 7 6 4 4 3 10 9 6 7 11 12 11 11 14 18 21 23 24 24 24 22 21 19 21 27 31 32 32 32 31 29 28
3 2 1 1 3 2 4 5 5 7 9 8 8 6 5 5 6 6 6 9 12 13 14 13 12 12 11 11 12 10 9 8 6 2 2 2 7 10 9 9 11 12 12 13 14 16 18 21 22 23 24 25 21 19 24 29 32 32 32 31 30 29 27
4 7 7 6 7 5 5 6 6 8 9 7 7 7 6 5 6 7 7 9 11 13 13 12 11 12 13 13 13 13 12 12 12 9 7 3 4 9 10 9 12 14 15 15 14 14 17 20 21 20 24 26 24 23 27 30 31 31 31 30 29 27 26
3 4 7 10 11 7 4 7 8 10 11 10 8 8 6 7 9 9 10 12 13 14 14 13 11 12 14 14 13 12 12 12 13 11 10 9 5 4 10 12 13 13 13 13 12 12 15 20 23 23 24 26 26 27 29 28 29 30 31 29 27 25 24
5 2 2 8 14 12 9 9 10 11 13 13 13 12 11 12 13 12 14 15 14 15 15 14 13 12 13 14 13 11 11 11 11 9 9 11 13 10 2 8 12 13 11 11 13 12 13 20 24 24 24 26 27 28 27 26 28 29 28 26 24 22 21
6 5 3 3 12 14 14 13 12 11 13 14 16 16 16 15 15 15 17 17 16 16 16 15 15 14 14 14 13 11 11 11 11 10 9 9 10 12 14 12 9 13 12 12 14 15 16 20 23 23 24 26 26 26 26 26 28 28 26 25 23 21 20
3 4 1 1 7 9 10 12 13 12 12 14 15 16 16 16 15 15 16 17 17 17 17 16 14 12 11 12 12 11 10 9 9 10 11 9 10 10 12 13 10 10 13 15 17 19 19 21 22 23 23 23 23 24 24 25 27 29 26 24 22 21 20
2 4 3 2 6 9 8 10 12 11 11 13 15 15 15 15 15 15 16 16 16 16 17 17 15 11 9 10 11 11 10 8 7 7 7 4 2 2 3 6 2 5 13 18 19 19 20 21 21 21 21 22 22 22 23 24 27 27 25 22 21 19 18
4 5 4 5 8 11 10 9 10 10 10 11 13 14 14 14 14 15 16 15 15 15 15 17 17 15 13 12 12 11 10 8 5 5 6 5 9 10 9 7 6 8 14 18 18 18 19 20 20 20 21 21 21 21 22 23 23 23 23 21 19 18 18
4 6 6 9 11 11 10 9 10 10 9 10 11 12 12 13 15 15 15 14 14 14 14 14 14 15 16 15 13 12 11 11 12 11 8 7 9 11 12 14 15 14 16 18 18 19 20 20 20 20 19 19 19 19 19 19 20 20 20 18 17 19 22
Wind_Direction
216 210 207 208 220 230 214 209 219 223 223 226 235 249 248 235 231 232 232 234 222 224 243 244 233 215 208 208 203 194 189 206 218 187 173 183 183 187 193 192 192 191 188 190 192 191 189 187 189 193 195 193 191 189 187 187 189 190 191 192 192 191 191
212 205 206 208 216 230 232 214 209 216 225 225 229 245 242 235 239 236 231 237 234 229 223 212 217 219 211 210 211 198 182 198 219 183 167 180 183 183 189 187 187 189 190 194 193 192 194 191 190 193 194 194 193 190 189 187 187 190 192 192 193 192 191
202 193 205 214 212 221 236 237 212 209 219 217 219 236 232 228 238 240 233 234 234 239 233 202 207 211 199 195 208 214 198 193 209 190 168 176 184 182 181 178 178 185 192 198 195 194 197 194 191 193 192 193 194 192 190 189 189 191 193 193 194 193 192
193 184 200 216 209 211 227 242 232 219 220 218 219 230 229 226 235 238 234 235 231 235 241 228 219 206 191 189 194 212 216 203 198 193 179 180 183 176 173 175 176 182 194 201 198 197 199 196 191 192 193 193 194 193 190 190 191 192 192 193 192 192 192
194 193 198 209 211 205 212 230 236 227 215 215 224 229 222 218 233 242 235 235 232 229 237 243 242 200 175 192 198 194 215 223 214 209 193 178 174 169 169 175 178 181 189 196 198 198 200 199 194 193 195 195 194 194 191 190 191 191 192 193 191 192 192
203 205 201 203 210 212 209 215 228 233 223 213 219 225 218 211 223 237 240 245 237 223 225 236 248 207 171 194 211 187 196 222 235 241 206 160 161 172 172 174 178 180 178 180 194 201 201 201 197 195 195 194 193 193 191 191 191 191 192 192 191 191 191
226 216 203 199 206 213 220 218 217 227 231 226 224 222 217 216 223 229 236 247 243 224 216 224 243 234 187 194 210 201 197 204 224 240 214 162 165 175 171 172 176 180 176 174 189 203 204 203 199 195 195 194 193 192 190 190 191 191 192 191 190 190 190
244 239 215 197 200 209 221 225 217 218 225 230 235 230 217 220 226 227 228 230 234 239 250 243 243 240 210 194 192 210 216 201 210 226 205 162 164 167 167 172 177 182 181 178 189 198 200 201 196 193 194 194 193 191 190 191 191 191 191 190 189 188 189
228 243 227 198 198 208 215 223 223 222 222 226 234 238 232 227 228 230 232 226 221 221 231 253 245 222 216 202 184 209 232 211 204 206 163 150 160 164 168 173 174 179 180 182 192 194 189 193 192 190 193 195 194 192 191 191 191 191 190 189 188 187 188
208 222 231 200 192 209 215 217 224 228 226 224 229 236 239 238 230 229 235 241 232 206 196 221 237 222 203 186 188 225 242 217 193 168 138 149 161 162 168 171 171 177 183 186 190 186 182 187 190 189 191 195 196 195 193 192 191 189 189 188 187 185 186
224 218 230 219 200 207 214 212 216 225 231 229 226 228 235 238 239 240 238 248 260 239 202 204 222 228 217 172 177 217 242 212 189 198 153 150 161 166 164 165 168 174 184 188 184 180 180 185 189 189 190 193 196 195 195 194 191 188 188 188 186 184 185
236 234 230 227 218 213 218 216 213 218 227 232 230 227 230 233 236 241 235 237 259 260 248 230 211 218 237 222 184 196 228 237 220 220 174 150 156 161 156 157 167 173 176 179 178 176 179 184 188 188 189 194 197 196 195 195 192 188 187 187 185 183 185
226 236 238 238 233 222 220 221 218 216 220 229 236 235 229 228 236 241 226 219 235 248 255 259 249 225 234 230 190 185 202 222 228 191 152 156 155 153 156 163 171 174 169 168 170 173 176 182 187 188 189 194 197 196 194 195 193 189 186 186 185 182 184
217 225 234 241 245 239 231 229 225 221 219 221 230 240 237 231 236 244 238 230 235 237 242 253 262 266 257 235 191 190 195 206 218 183 168 189 178 158 165 171 173 177 170 164 168 169 174 183 188 190 191 193 196 195 192 193 195 189 184 185 184 182 183
229 224 223 228 240 247 249 247 238 235 234 223 216 225 237 238 239 240 238 238 242 239 237 243 248 256 264 264 243 223 203 200 212 209 204 207 189 169 177 177 175 183 176 167 169 171 177 186 190 193 193 192 194 195 192 193 195 189 182 182 183 182 182
241 237 226 219 225 236 244 247 242 240 245 240 223 215 225 237 246 244 236 231 233 231 230 236 235 233 244 255 258 253 234 213 215 214 213 211 187 170 176 177 176 182 180 174 175 178 181 186 189 193 194 192 194 195 193 193 194 189 181 180 181 181 180
233 239 238 226 223 229 233 235 237 239 245 249 245 237 229 227 232 244 248 244 246 244 234 234 236 233 233 238 246 254 250 234 230 221 215 217 203 177 175 181 183 181 181 180 180 182 184 187 190 192 192 193 196 196 191 190 193 188 179 178 179 179 178
230 230 237 238 232 233 231 229 233 238 245 247 242 239 237 231 223 223 229 235 241 246 247 247 247 248 249 242 236 247 255 251 253 252 233 226 225 204 180 180 182 179 180 183 182 183 185 188 191 190 191 193 197 197 190 187 192 188 177 175 177 175 176
230 224 227 231 230 234 242 247 241 237 245 252 254 252 248 244 241 235 228 237 238 231 233 244 254 263 268 267 251 245 259 261 250 252 249 234 232 225 186 174 178 180 181 181 181 184 186 188 187 184 187 191 193 194 188 184 189 186 173 171 174 174 175
225 219 219 227 237 241 243 249 252 245 238 241 249 254 253 251 252 261 312 319 290 275 241 229 227 236 245 254 255 240 249 261 260 253 251 245 244 241 214 186 178 177 182 182 181 183 181 181 182 182 185 189 190 190 185 182 184 180 169 169 172 174 175
217 220 223 232 246 245 237 238 245 251 249 243 244 252 256 261 264 276 328 327 330 344 311 251 233 241 234 229 233 231 234 246 255 258 259 260 259 254 246 235 201 181 183 182 177 175 174 176 180 181 183 185 186 184 180 178 178 173 168 170 172 173 174
208 215 227 231 233 232 225 212 183 111 80 17 21 349 286 299 315 338 360 340 335 339 325 320 348 323 265 232 222 227 229 231 236 247 255 257 260 260 256 253 230 188 182 180 172 169 171 175 177 176 177 181 181 178 175 175 174 168 167 170 172 172 171
205 207 222 226 230 231 208 176 138 109 152 69 42 316 264 3 13 11 12 354 341 342 337 338 351 341 309 281 247 235 234 231 231 239 244 244 247 247 245 248 240 195 175 172 168 166 169 172 173 172 174 177 177 175 173 171 169 168 168 170 169 169 169
216 214 221 226 234 222 176 167 161 152 163 124 91 237 238 26 16 10 11 359 354 358 347 337 331 320 314 306 297 285 264 244 237 246 252 245 234 228 236 244 227 179 165 162 160 164 168 170 170 169 170 173 174 173 170 167 167 168 167 166 165 165 166
224 223 225 233 236 200 164 178 191 149 150 191 222 221 184 13 357 1 0 348 352 355 342 337 331 315 312 308 303 300 294 279 260 260 288 313 284 247 234 211 147 140 148 150 154 163 167 167 167 165 166 168 169 170 168 167 166 163 161 161 160 160 161
221 225 229 236 235 206 191 197 190 170 190 215 219 172 45 8 356 1 355 347 353 353 340 332 323 315 317 315 305 297 303 318 320 287 321 23 352 305 225 141 127 131 137 139 148 159 163 164 163 162 163 163 163 168 169 164 160 157 155 154 153 152 153
216 219 223 229 231 216 209 202 186 185 209 191 54 31 32 30 16 7 3 360 358 350 338 328 320 316 318 320 314 303 310 352 359 321 300 73 55 21 79 122 132 137 134 137 153 161 164 166 162 159 159 157 160 167 165 155 151 149 147 146 144 144 145
223 224 223 227 242 208 192 182 156 116 86 71 51 24 35 45 27 15 12 5 358 349 338 327 320 315 316 324 325 317 330 21 31 327 299 97 111 113 109 120 131 133 133 146 160 163 164 164 160 157 156 154 156 158 152 145 142 140 138 139 137 136 138
204 215 258 96 83 113 147 142 126 109 90 68 50 42 48 48 33 28 23 7 3 5 359 349 340 335 335 341 345 348 359 12 18 357 318 68 115 125 129 130 131 135 142 149 154 156 154 151 151 154 154 149 144 141 138 137 135 133 133 134 132 132 134
62 49 33 52 67 72 107 118 114 108 100 81 67 64 60 59 58 53 48 35 28 28 25 15 9 5 2 0 358 358 3 7 4 351 323 288 149 133 133 134 136 142 150 154 152 147 138 132 132 139 142 136 129 127 130 131 130 130 130 130 130 132 134
25 29 17 37 45 38 86 107 83 76 86 89 85 83 76 72 70 63 59 55 47 41 36 28 24 21 16 13 9 1 1 10 10 355 329 315 316 131 137 142 147 150 154 153 145 133 125 123 123 123 124 123 122 126 131 131 129 129 129 128 129 130 132
77 111 334 46 61 49 45 69 69 66 75 75 70 73 78 79 76 68 61 58 54 48 40 31 30 31 23 17 13 6 2 5 2 1 10 3 346 338 35 121 132 135 130 125 123 119 120 126 125 120 120 126 132 134 133 130 126 123 123 123 123 123 124
97 139 236 78 84 70 55 61 68 67 70 70 66 66 68 70 73 70 65 61 59 56 50 41 38 38 32 22 13 6 7 6 354 348 7 26 15 352 346 3 59 96 104 109 115 116 116 120 121 120 123 130 133 129 125 123 121 118 117 119 121 121 122
125 123 179 79 91 82 55 49 57 64 71 75 74 70 66 63 62 64 66 64 60 57 53 49 45 44 42 35 22 9 0 352 346 346 353 12 36 27 352 343 13 76 102 108 107 107 108 111 115 118 120 121 120 118 119 120 120 119 120 122 123 126 132
116 87 78 70 95 99 71 41 42 52 61 70 74 73 71 69 64 60 61 61 57 54 50 44 39 35 41 47 41 28 14 352 330 321 320 332 64 117 252 269 284 99 104 103 101 102 107 111 113 112 112 111 111 113 118 121 123 125 128 129 130 137 143
117 108 91 82 91 94 82 58 48 43 43 57 66 66 66 69 67 63 61 58 55 54 49 42 34 26 28 38 42 39 34 24 352 285 251 192 159 164 169 155 123 93 86 86 90 95 99 103 104 105 106 108 110 115 121 127 130 133 135 137 142 146 144
127 127 101 92 93 90 85 76 64 52 45 47 52 54 57 62 66 66 63 59 57 57 55 50 41 31 27 28 30 33 32 24 10 354 353 39 76 90 91 83 75 72 75 77 81 87 92 96 100 103 105 108 113 119 126 131 134 139 144 149 149 142 138